Regional Weather Roundup
Issued by NWS

Home | Current Version | Previous Version | Graphics & Text | Print | Product List | Glossary On
Versions: 1 2 3 4 5 6 7 8 9 10 11 12 13 14 15 16 17 18 19 20 21 22 23 24 25 26 27 28 29 30 31 32 33 34 35 36 37 38 39 40 41 42 43 44 45 46 47 48 49 50
000
ASUS44 KMEG 022200
RWRTN
TENNESSEE HOURLY STATE WEATHER ROUNDUP
NATIONAL WEATHER SERVICE MEMPHIS TN
500 PM CDT THU JUL 02 2015

TNZ002-004-019-021-049-052-054-088>092-022300-
WEST TENNESSEE

CITY           SKY/WX    TMP DP  RH WIND       PRES   REMARKS
MEMPHIS INTL   CLOUDY    87  70  56 SW14G20   29.87F HX  92
NWS MEMPHIS      N/A     85 N/A N/A MISG        N/A
JACKSON        PTSUNNY   83  70  64 SW14      29.86F
DYERSBURG        N/A    N/A N/A N/A MISG        N/A
PARIS          MOSUNNY   82  72  69 SW12      29.85R
LEXINGTON      CLOUDY    81  70  69 S9        29.86S
$$

TNZ008-025-027-028-033-062-065-066-022300-
NORTH MIDDLE TENNESSEE

CITY           SKY/WX    TMP DP  RH WIND       PRES   REMARKS
NASHVILLE      CLOUDY    79  74  84 S12       29.86F
CLARKSVILLE    PTSUNNY   79  74  84 SW6       29.84S
COOKEVILLE     PTSUNNY   81  73  78 SW9       29.90S
CROSSVILLE     PTSUNNY   77  68  73 VRB6      29.95S
$$

TNZ061-075-076-078-094-096-097-022300-
SOUTH MIDDLE TENNESSEE

CITY           SKY/WX    TMP DP  RH WIND       PRES   REMARKS
FAYETTEVILLE     N/A     81  68  65 SW13      29.92F
TULLAHOMA      PTSUNNY   75  72  88 SW9       29.94S
WINCHESTER     CLOUDY    81  70  69 VRB7      29.92S
COLUMBIA       MOSUNNY   82  73  74 SW9       29.87S
SHELBYVILLE    CLOUDY   N/A N/A N/A MISG        N/A
$$

TNZ017-018-042-046-047-022300-
NORTHEAST TENNESSEE

CITY           SKY/WX    TMP DP  RH WIND       PRES   REMARKS
TRI CITIES     CLOUDY    75  65  70 SW10      29.94R
ELIZABETHTON   MOCLDY    73  64  73 W7        29.95R
$$

TNZ012-013-036-069-073-074-022300-
CENTRAL EAST TENNESSEE

CITY           SKY/WX    TMP DP  RH WIND       PRES   REMARKS
KNOXVILLE      PTSUNNY   78  68  71 W12       29.92R
OAK RIDGE      CLOUDY    79  68  69 VRB6      29.94R
GATLINBURG     CLEAR     79  66  65 W7        29.91S
$$

TNZ083-085-099-022300-
SOUTHEAST TENNESSEE

CITY           SKY/WX    TMP DP  RH WIND       PRES   REMARKS
CHATTANOOGA    PTSUNNY   76  70  82 S3        29.93F
$$

SKY/WX REPORTED AS FAIR MEANS FEW OR NO CLOUDS BELOW
12 THOUSAND FEET.




USA.gov is the U.S. government's official web portal to all federal, state and local government web resources and services.